www.pogodaiklimat.ru

Погода и климат >> Архив погоды >> Самоа >> Togitogiga


ПОГОДА в Togitogiga

  • Прогноз погоды в Togitogiga
  • Монитор погоды в Togitogiga
  • Климат города

АРХИВ ПОГОДЫ в Togitogiga

Время (UTC), дата Ветер
(напр.,м/с)
 
Видим.   Явления Облачность Т
(С)
Тd
(С)
f
(%)
Тe
(С)
Тes
(С)
Комфортность P
(гПа)
Po
(гПа)
Тmin
(С)
Tmax
(С)
R
(мм)
R24
(мм)
S
(см)
21 18.06 СВ 1 н/о н/о +28.1 +28.1 100 +47 +47 опасность
перегрева
1015.3 1014.9
00 19.06 СВ 1 н/о н/о +30.4 +30.4 100 +58 +58 опасность
перегрева
1013.3 1012.9 +23.7
03 19.06 В 1 н/о н/о +29.5 +29.5 100 +53 +53 опасность
перегрева
1012.1 1011.7
06 19.06 штиль 0 н/о н/о +24.6 +24.6 100 +34 +34 очень
душно
1013.3 1012.9
09 19.06 штиль 0 н/о н/о +23.4 +23.4 100 +33 +33 очень
душно
1014.3 1013.9
12 19.06 штиль 0 н/о н/о +22.5 +22.5 100 +30 +30 очень
душно
1013.8 1013.4 +29.6
15 19.06 штиль 0 н/о н/о +20.8 +20.8 100 +26 +26 душно 1013.0 1012.6
18 19.06 штиль 0 н/о н/о +20.2 +20.2 100 +24 +24 комфорт 1014.0 1013.6
21 19.06 С 1 н/о н/о +28.6 +28.6 100 +49 +49 опасность
перегрева
1015.1 1014.7
00 20.06 В 1 н/о н/о +29.6 +29.8 100 +53 +53 опасность
перегрева
1013.5 1013.1 +21.4
03 20.06 В 1 н/о н/о +29.6 +29.8 100 +53 +53 опасность
перегрева
1013.5 1013.1 +21.4
06 20.06 штиль 0 н/о н/о +24.2 +24.2 100 +33 +33 очень
душно
1013.3 1012.9
12 20.06 СВ 1 н/о н/о +21.1 +21.1 100 +26 +26 душно 1014.3 1013.9 +30.7
15 20.06 СВ 1 н/о н/о +20.4 +20.4 100 +26 +26 душно 1012.4 1012.0
18 20.06 С 1 н/о н/о +20.2 +20.2 100 +26 +26 душно 1012.9 1012.5
21 20.06 В 1 н/о н/о +28.7 +28.7 100 +49 +49 опасность
перегрева
1013.7 1013.3
00 21.06 В 1 н/о н/о +29.0 +29.0 100 +51 +51 опасность
перегрева
1011.9 1011.5 +20.2
03 21.06 штиль 0 н/о н/о +26.4 +26.4 100 +40 +40 очень
душно
1011.2 1010.8
06 21.06 штиль 0 н/о н/о +25.1 +25.1 100 +36 +36 очень
душно
1011.7 1011.3
09 21.06 С 1 н/о н/о +23.5 +23.5 100 +32 +32 очень
душно
1012.5 1012.1
12 21.06 штиль 0 н/о н/о +23.3 +23.3 100 +33 +33 очень
душно
1011.6 1011.2 +32.1
15 21.06 н/о н/о +22.9 +22.9 100 1010.7 1010.3
18 21.06 СВ 1 н/о н/о +22.6 +22.6 100 +31 +31 очень
душно
1011.9 1011.5
21 21.06 штиль 0 н/о н/о +26.8 +26.8 100 +42 +42 опасность
перегрева
1012.9 1012.5
00 22.06 Ю 1 н/о н/о +28.4 +28.6 100 +48 +48 опасность
перегрева
1011.1 1010.7 +20.0
03 22.06 ЮЗ 2 н/о н/о +30.0 +30.0 100 +55 +55 опасность
перегрева
1010.1 1009.7
06 22.06 штиль 0 н/о н/о +25.3 +25.3 100 +36 +36 очень
душно
1011.9 1011.5
12 22.06 штиль 0 н/о н/о +23.0 +23.0 100 +32 +32 очень
душно
1012.1 +30.3
15 22.06 штиль 0 н/о н/о +22.4 +22.4 100 +30 +30 очень
душно
1011.2 1010.8
18 22.06 штиль 0 н/о н/о +22.1 +22.1 100 +29 +29 очень
душно
1012.4 1012.0
21 22.06 штиль 0 н/о н/о +27.8 +27.8 100 +45 +45 опасность
перегрева
1014.4 1014.0
00 23.06 штиль 0 н/о н/о +28.0 +28.2 100 +46 +46 опасность
перегрева
1011.7 1011.3 +22.4
03 23.06 ЮВ 1 н/о н/о +28.3 +28.3 100 +48 +48 опасность
перегрева
1010.4 1010.0
06 23.06 штиль 0 н/о н/о +24.4 +24.4 100 +34 +34 очень
душно
1012.0 1011.6 0.5
09 23.06 С 1 н/о н/о +22.9 +22.9 100 +32 +32 очень
душно
1013.6 1013.2
12 23.06 С 1 н/о н/о +22.2 +22.2 100 +30 +30 очень
душно
1012.8 1012.4 +30.3
15 23.06 штиль 0 н/о н/о +22.7 +22.7 100 +31 +31 очень
душно
1011.5 1011.1
18 23.06 штиль 0 н/о н/о +22.0 +22.0 100 +29 +29 очень
душно
1013.1 1012.7
21 23.06 С 1 н/о н/о +30.0 +30.0 100 +55 +55 опасность
перегрева
1014.5 1014.1
00 24.06 ЮВ 1 н/о н/о +28.4 +28.4 100 +48 +48 опасность
перегрева
1012.5 1012.1 +22.0
03 24.06 штиль 0 н/о н/о +28.3 +28.3 100 +48 +48 опасность
перегрева
1011.4 1011.0
06 24.06 штиль 0 н/о н/о +24.8 +24.8 100 +35 +35 очень
душно
1012.9 1012.5 7
12 24.06 С 1 н/о н/о +21.8 +21.8 100 +28 +28 душно 1013.9 1013.5 +30.0
18 24.06 штиль 0 н/о н/о +20.7 1013.0
21 24.06 СВ 1 н/о н/о +28.0 +28.0 100 +46 +46 опасность
перегрева
1014.1 1013.7
00 25.06 В 1 н/о н/о +31.8 +32.0 100 +65 +65 опасность
перегрева
1013.0 1012.6 +22.0 7
03 25.06 СВ 1 н/о н/о +29.5 1011.2
06 25.06 штиль 0 н/о н/о +24.1 +24.1 100 +33 +33 очень
душно
1013.1 1012.7
09 25.06 штиль 0 н/о н/о +22.2 +22.2 100 +30 +30 очень
душно
1014.2 1013.8
12 25.06 штиль 0 н/о н/о +21.5 +21.5 100 +28 +28 очень
душно
1013.7 1013.3 +30.2
15 25.06 штиль 0 н/о н/о +20.9 +20.9 100 +26 +26 душно 1012.3 1011.9
18 25.06 штиль 0 н/о н/о +20.9 +20.9 100 +26 +26 душно 1013.2 1012.8

 

Местоположение метеостанции Togitogiga (Самоа): широта -14.03 долгота -171.77 высота над уровнем моря 4 м.

В архиве по умолчанию представлена погода в Togitogiga за последнюю неделю. Архивные данные за месяц целиком и за предыдущие месяцы, начиная с января 2011 года, Вы можете получить, выбрав интересующий диапазон дат из раскрывающегося списка и нажав кнопку "Ввод!".


*Определитесь, кто Вы:
робот инопланетянин человек

Внимание! Время в таблицах - всемирное. Для получения местного времени необходимо прибавить поправку, которая в Togitogiga равна 13 ч.

Смотрите также архив погоды в соседних городах и на ближайших метеорологических станциях:

Погода в Le Mafa (Самоа) (20 км)
Погода в Apia (Американское Самоа) (27 км)
Погода в Lufi-Lufi (Самоа) (28 км)
Погода в Faleolo Int East (Самоа) (33 км)
Погода в Faleolo Int Airport (Американское Самоа) (35 км)
Погода в Faleolo Int Airport (Самоа) (35 км)
Погода в Manono (Самоа) (42 км)
Погода в Maota Int Airport (Самоа) (62 км)
Погода в Le Piu Tai (Самоа) (92 км)
Погода в Mount Talu (Самоа) (115 км)

Пояснения к столбцам:

Ветер - указаны скорость ветра в м/с - средняя за 10 мин, порывы в срок и между сроками (в фигурных скобках) и направление, откуда дует ветер: С - северный, СВ - северо-восточный, В - восточный, ЮВ - юго-восточный, Ю - южный, ЮЗ - юго-западный, З - западный, СЗ - северо-западный.
Видимость - горизонтальная дальность видимости в метрах или километрах. При видимости от 1 до 10 км при отсутствии осадков обычно наблюдается дымка, при ухудшении видимости до 1 км и менее - туман. В сухую погоду видимость может ухудшаться дымом, пылью или мглою.
Явления - указаны атмосферные явления, наблюдавшиеся в срок или в последний час перед сроком; фигурными скобками обозначены явления, наблюдавшиеся между сроками (за 1-3 часа до срока); квадратными скобками обозначены град или гололедные отложения с указанием их диаметра в мм.
Облачность - указаны через наклонную черту общая и нижняя облачность в баллах и высота нижней границы облаков в метрах; квадратными скобками обозначены формы облаков: Ci - перистые, Cs - перисто-слоистые, Cc - перисто-кучевые, Ac - высококучевые, As - высокослоистые, Sc - слоисто-кучевые, Ns - слоисто-дождевые, Cu - кучевые, Cb - кучево-дождевые. Подробнее классификацию облаков см. в Атласе облаков (PDF).
T - Температура воздуха - температура, измеренная на высоте 2 м над землей.
Td - Температура точки росы - температура, при понижении до которой содержащийся в воздухе водяной пар достигнет насыщения.
f - Относительная влажность воздуха - влажноcть воздуха, измеренная на высоте 2 м над землей.
Te - Эффективная температура - температура, которую ощущает одетый по сезону человек в тени. Характеристика душности погоды. При расчете учитывается влияние влажности воздуха и скорости ветра на теплоощущения человека.
Tes - Эффективная температура на солнце - температура, которую ощущает человек, с поправкой на солнечный нагрев. Характеристика знойности погоды. Зависит от высоты солнца над горизонтом, облачности и скорости ветра. Ночью, в пасмурную погоду, а также при ветре 12 м/с и более поправка равна нулю.
P - Атмосферное давление - приведенное к уровню моря атмосферное давление.
Po - Атмосферное давление - измеренное на уровне метеостанции атмосферное давление.
Tmin - Минимальная температура - минимум температуры воздуха на высоте 2 м над землей.
Tmax - Максимальная температура - максимум температуры воздуха на высоте 2 м над землей.
R - Количество осадков - Количество выпавших осадков за период времени, мм. При наведении курсора мыши на число - период времени, за который выпало указанное количество осадков.
R24 - Количество осадков - Количество выпавших осадков за 24 часа, мм.
S - Снежный покров - Высота снежного покрова, см. При наведении курсора мыши на число - состояние снежного покрова и степень покрытия местности в баллах.